Tracking 19283 objects as of 17-Nov-2018
HD Live streaming from Space Station
objects crossing your sky now

COSMOS 826

Track COSMOS 826 now!
10-day predictions
COSMOS 826 is classified as:


NORAD ID: 8890
Int'l Code: 1976-054B
Perigee: 1,488.8 km
Apogee: 1,551.3 km
Inclination: 74.0 °
Period: 116.3 minutes
Semi major axis: 7891 km
RCS: 0.6963 m2 (medium)
Launch date: June 15, 1976
Source: Commonwealth of Independent States (former USSR) (CIS)
Launch site: PLESETSK MISSILE AND SPACE COMPLEX (PKMTR)
aabbcc
Your satellite tracking list
Your tracking list is empty




NASA's NSSDC Master Catalog

Two Line Element Set (TLE):
1  8890U 76054B   18320.52198059 -.00000006  00000-0  69721-4 0  9996
2  8890  74.0008  88.3662 0039618 182.6136 246.4199 12.38515349918153
Source of the keplerian elements: AFSPC